| time (UTC) | temp C | wind direction | speed KPH | gust KPH | rain 1hr cm | rain 24hr cm | rain mn cm | humidity % | barometer mb |
| 20260508004548 | 6 | 324 | 8.0 | 17.7 | 0.00 | 0.00 | 0.00 | 66 | 1006.5 |
| 20260508004043 | 6 | 324 | 9.7 | 17.7 | 0.00 | 0.00 | 0.00 | 68 | 1006.4 |
| 20260508003542 | 6 | 324 | 12.9 | 17.7 | 0.00 | 0.00 | 0.00 | 64 | 1006.3 |
| 20260508003101 | 6 | 324 | 9.7 | 14.5 | 0.00 | 0.00 | 0.00 | 65 | 1006.3 |
| 20260508002543 | 6 | 324 | 8.0 | 11.3 | 0.00 | 0.00 | 0.00 | 65 | 1006.1 |
| 20260508002043 | 6 | 324 | 6.4 | 11.3 | 0.00 | 0.00 | 0.00 | 68 | 1006.2 |
| 20260508001553 | 6 | 324 | 8.0 | 16.1 | 0.00 | 0.00 | 0.00 | 65 | 1006.1 |
| 20260508001042 | 6 | 324 | 9.7 | 16.1 | 0.00 | 0.00 | 0.00 | 67 | 1006.2 |
| 20260508000543 | 6 | 324 | 9.7 | 17.7 | 0.00 | 0.00 | 0.00 | 64 | 1006.1 |
| 20260508000054 | 6 | 324 | 8.0 | 17.7 | 0.00 | 0.00 | 0.00 | 63 | 1006.1 |
| 20260507235543 | 6 | 324 | 8.0 | 17.7 | 0.00 | 0.00 | 0.00 | 67 | 1006.2 |
| 20260507235043 | 6 | 324 | 8.0 | 11.3 | 0.00 | 0.00 | 0.00 | 61 | 1006.1 |
| 20260507234549 | 6 | 324 | 4.8 | 14.5 | 0.00 | 0.00 | 0.00 | 60 | 1006.0 |
| 20260507234042 | 6 | 324 | 3.2 | 16.1 | 0.00 | 0.00 | 0.00 | 65 | 1006.2 |
| 20260507233543 | 6 | 324 | 9.7 | 16.1 | 0.00 | 0.00 | 0.00 | 63 | 1006.0 |
| 20260507233050 | 6 | 324 | 9.7 | 12.9 | 0.00 | 0.00 | 0.00 | 60 | 1005.9 |
| 20260507232541 | 6 | 324 | 6.4 | 16.1 | 0.00 | 0.00 | 0.00 | 65 | 1005.9 |
| 20260507232041 | 7 | 324 | 4.8 | 16.1 | 0.00 | 0.00 | 0.00 | 63 | 1005.9 |
| 20260507231550 | 7 | 324 | 4.8 | 14.5 | 0.00 | 0.00 | 0.00 | 58 | 1005.8 |
| 20260507231042 | 7 | 324 | 8.0 | 14.5 | 0.00 | 0.00 | 0.00 | 61 | 1005.8 |
| 20260507230544 | 6 | 324 | 4.8 | 12.9 | 0.00 | 0.00 | 0.00 | 60 | 1005.6 |
| 20260507230107 | 7 | 324 | 4.8 | 11.3 | 0.00 | 0.00 | 0.00 | 60 | 1005.6 |
| 20260507225541 | 7 | 324 | 4.8 | 9.7 | 0.00 | 0.00 | 0.00 | 58 | 1005.6 |
| 20260507225043 | 7 | 324 | 4.8 | 8.0 | 0.00 | 0.00 | 0.00 | 59 | 1005.6 |
| 20260507224550 | 7 | 324 | 3.2 | 12.9 | 0.00 | 0.00 | 0.00 | 61 | 1005.6 |
| 20260507224043 | 7 | 324 | 6.4 | 12.9 | 0.00 | 0.00 | 0.00 | 60 | 1005.5 |
| 20260507223543 | 7 | 324 | 4.8 | 11.3 | 0.00 | 0.00 | 0.00 | 57 | 1005.7 |
| 20260507223138 | 7 | 324 | 4.8 | 12.9 | 0.00 | 0.00 | 0.00 | 56 | 1005.5 |
| 20260507222543 | 7 | 324 | 4.8 | 12.9 | 0.00 | 0.00 | 0.00 | 56 | 1005.6 |
| 20260507222043 | 7 | 324 | 8.0 | 12.9 | 0.00 | 0.00 | 0.00 | 56 | 1005.6 |
| 20260507221548 | 8 | 324 | 8.0 | 11.3 | 0.00 | 0.00 | 0.00 | 53 | 1005.6 |
| 20260507221042 | 8 | 324 | 4.8 | 12.9 | 0.00 | 0.00 | 0.00 | 58 | 1005.5 |
| 20260507220541 | 8 | 324 | 6.4 | 12.9 | 0.00 | 0.00 | 0.00 | 56 | 1005.4 |
| 20260507220049 | 8 | 324 | 8.0 | 12.9 | 0.00 | 0.00 | 0.00 | 57 | 1005.4 |
| 20260507215543 | 8 | 324 | 4.8 | 11.3 | 0.00 | 0.00 | 0.00 | 58 | 1005.4 |
| 20260507215131 | 8 | 324 | 8.0 | 16.1 | 0.00 | 0.00 | 0.00 | 59 | 1005.5 |
| 20260507214556 | 7 | 324 | 8.0 | 16.1 | 0.00 | 0.00 | 0.00 | 57 | 1005.4 |
| 20260507214044 | 7 | 324 | 8.0 | 16.1 | 0.00 | 0.00 | 0.00 | 60 | 1005.4 |
| 20260507213541 | 8 | 324 | 6.4 | 12.9 | 0.00 | 0.00 | 0.00 | 56 | 1005.4 |
| 20260507213107 | 8 | 324 | 6.4 | 12.9 | 0.00 | 0.00 | 0.00 | 60 | 1005.3 |
| 20260507212543 | 7 | 324 | 6.4 | 12.9 | 0.00 | 0.00 | 0.00 | 63 | 1005.2 |
| 20260507212045 | 8 | 324 | 8.0 | 22.5 | 0.00 | 0.00 | 0.00 | 60 | 1005.1 |
| 20260507211549 | 7 | 324 | 14.5 | 22.5 | 0.00 | 0.00 | 0.00 | 60 | 1005.2 |
| 20260507211043 | 8 | 324 | 11.3 | 19.3 | 0.00 | 0.00 | 0.00 | 62 | 1005.0 |
| 20260507210547 | 7 | 324 | 8.0 | 17.7 | 0.00 | 0.00 | 0.00 | 57 | 1004.9 |
| 20260507210058 | 7 | 324 | 8.0 | 16.1 | 0.00 | 0.00 | 0.00 | 61 | 1004.9 |
| 20260507205544 | 8 | 324 | 8.0 | 19.3 | 0.00 | 0.00 | 0.00 | 63 | 1005.0 |
| 20260507205047 | 8 | 324 | 11.3 | 19.3 | 0.00 | 0.00 | 0.00 | 62 | 1004.9 |
| 20260507204551 | 8 | 324 | 12.9 | 19.3 | 0.00 | 0.00 | 0.00 | 61 | 1004.6 |
| 20260507204044 | 7 | 324 | 6.4 | 14.5 | 0.00 | 0.00 | 0.00 | 62 | 1004.6 |
| 20260507203544 | 7 | 324 | 8.0 | 14.5 | 0.00 | 0.00 | 0.00 | 64 | 1004.6 |
| 20260507203051 | 7 | 324 | 9.7 | 14.5 | 0.00 | 0.00 | 0.00 | 62 | 1004.4 |
| 20260507202545 | 7 | 324 | 6.4 | 16.1 | 0.00 | 0.00 | 0.00 | 64 | 1004.5 |
| 20260507202050 | 7 | 324 | 6.4 | 16.1 | 0.00 | 0.00 | 0.00 | 59 | 1004.5 |
| 20260507201604 | 7 | 324 | 11.3 | 16.1 | 0.00 | 0.00 | 0.00 | 62 | 1004.5 |
| 20260507201041 | 7 | 324 | 8.0 | 12.9 | 0.00 | 0.00 | 0.00 | 65 | 1004.6 |
| 20260507200545 | 7 | 324 | 6.4 | 11.3 | 0.00 | 0.00 | 0.00 | 64 | 1004.6 |
| 20260507200105 | 7 | 324 | 6.4 | 17.7 | 0.00 | 0.00 | 0.00 | 65 | 1004.6 |
| 20260507195543 | 7 | 324 | 11.3 | 17.7 | 0.00 | 0.00 | 0.00 | 62 | 1004.7 |
| 20260507195045 | 7 | 324 | 9.7 | 20.9 | 0.00 | 0.00 | 0.00 | 62 | 1004.5 |
| 20260507194549 | 8 | 324 | 6.4 | 20.9 | 0.00 | 0.00 | 0.00 | 66 | 1004.8 |
| 20260507194050 | 7 | 324 | 8.0 | 17.7 | 0.00 | 0.00 | 0.00 | 63 | 1004.7 |
| 20260507193545 | 7 | 324 | 4.8 | 14.5 | 0.00 | 0.00 | 0.00 | 64 | 1004.7 |
| 20260507193053 | 7 | 324 | 9.7 | 14.5 | 0.00 | 0.00 | 0.00 | 66 | 1004.6 |
| 20260507192545 | 7 | 324 | 9.7 | 14.5 | 0.00 | 0.00 | 0.00 | 66 | 1004.6 |
| 20260507192043 | 7 | 324 | 9.7 | 14.5 | 0.00 | 0.00 | 0.00 | 68 | 1004.7 |
| 20260507191550 | 7 | 324 | 6.4 | 12.9 | 0.00 | 0.00 | 0.00 | 65 | 1004.7 |
| 20260507191045 | 8 | 324 | 9.7 | 12.9 | 0.00 | 0.00 | 0.00 | 66 | 1004.5 |
| 20260507190544 | 7 | 324 | 6.4 | 14.5 | 0.00 | 0.00 | 0.00 | 70 | 1004.7 |
| 20260507190053 | 7 | 324 | 6.4 | 16.1 | 0.00 | 0.00 | 0.00 | 66 | 1004.5 |
| 20260507185544 | 7 | 324 | 9.7 | 16.1 | 0.00 | 0.00 | 0.00 | 68 | 1004.5 |
| 20260507185045 | 7 | 324 | 11.3 | 16.1 | 0.00 | 0.00 | 0.00 | 68 | 1004.5 |
| 20260507184551 | 8 | 324 | 11.3 | 14.5 | 0.00 | 0.00 | 0.00 | 68 | 1004.3 |
| 20260507184041 | 8 | 324 | 6.4 | 20.9 | 0.00 | 0.00 | 0.00 | 69 | 1004.3 |
| 20260507183540 | 8 | 324 | 11.3 | 20.9 | 0.00 | 0.00 | 0.00 | 67 | 1004.3 |
| 20260507183055 | 8 | 324 | 9.7 | 17.7 | 0.00 | 0.00 | 0.00 | 64 | 1004.2 |
| 20260507182541 | 8 | 324 | 11.3 | 17.7 | 0.00 | 0.00 | 0.00 | 60 | 1004.1 |
| 20260507182044 | 8 | 324 | 8.0 | 16.1 | 0.00 | 0.00 | 0.00 | 66 | 1004.2 |
| 20260507181554 | 8 | 324 | 9.7 | 16.1 | 0.00 | 0.00 | 0.00 | 66 | 1004.1 |
| 20260507181043 | 8 | 324 | 11.3 | 16.1 | 0.00 | 0.00 | 0.00 | 66 | 1004.4 |
| 20260507180542 | 8 | 324 | 11.3 | 17.7 | 0.00 | 0.00 | 0.00 | 67 | 1004.3 |
| 20260507180051 | 8 | 324 | 9.7 | 17.7 | 0.00 | 0.00 | 0.00 | 67 | 1004.2 |
| 20260507175541 | 8 | 324 | 11.3 | 17.7 | 0.00 | 0.00 | 0.00 | 67 | 1004.2 |
| 20260507175041 | 8 | 324 | 8.0 | 17.7 | 0.00 | 0.00 | 0.00 | 67 | 1004.2 |
| 20260507174556 | 8 | 324 | 11.3 | 17.7 | 0.00 | 0.00 | 0.00 | 67 | 1004.4 |
| 20260507174041 | 8 | 324 | 9.7 | 14.5 | 0.00 | 0.00 | 0.00 | 68 | 1004.4 |
| 20260507173541 | 8 | 324 | 6.4 | 11.3 | 0.00 | 0.00 | 0.00 | 71 | 1004.5 |
| 20260507173101 | 8 | 324 | 6.4 | 9.7 | 0.00 | 0.00 | 0.00 | 76 | 1004.6 |
| 20260507172543 | 7 | 324 | 4.8 | 8.0 | 0.00 | 0.00 | 0.00 | 80 | 1004.4 |
| 20260507172041 | 7 | 324 | 1.6 | 4.8 | 0.00 | 0.00 | 0.00 | 83 | 1004.6 |
| 20260507171601 | 7 | 0 | 0.0 | 3.2 | 0.00 | 0.00 | 0.00 | 85 | 1004.5 |
| 20260507171041 | 6 | 324 | 1.6 | 4.8 | 0.00 | 0.00 | 0.00 | 86 | 1004.7 |
| 20260507170541 | 6 | 324 | 3.2 | 4.8 | 0.00 | 0.00 | 0.00 | 88 | 1005.0 |
| 20260507170053 | 6 | 324 | 1.6 | 4.8 | 0.00 | 0.00 | 0.00 | 87 | 1005.2 |
| 20260507165541 | 6 | 324 | 3.2 | 4.8 | 0.00 | 0.00 | 0.00 | 88 | 1005.3 |
| 20260507165041 | 6 | 324 | 3.2 | 3.2 | 0.00 | 0.00 | 0.00 | 89 | 1005.2 |
| 20260507164550 | 5 | 324 | 0.0 | 3.2 | 0.00 | 0.00 | 0.00 | 88 | 1005.5 |
| 20260507164041 | 5 | 324 | 0.0 | 3.2 | 0.00 | 0.00 | 0.00 | 88 | 1005.5 |
| 20260507163542 | 5 | 324 | 1.6 | 6.4 | 0.00 | 0.00 | 0.00 | 87 | 1005.6 |
| 20260507163052 | 5 | 324 | 1.6 | 6.4 | 0.00 | 0.00 | 0.00 | 88 | 1005.6 |
| 20260507162541 | 5 | 324 | 4.8 | 12.9 | 0.00 | 0.00 | 0.00 | 89 | 1005.7 |
| 20260507162044 | 5 | 324 | 6.4 | 17.7 | 0.00 | 0.00 | 0.00 | 90 | 1005.7 |
| 20260507161602 | 6 | 324 | 9.7 | 17.7 | 0.00 | 0.00 | 0.00 | 89 | 1005.8 |
| 20260507161041 | 6 | 324 | 12.9 | 17.7 | 0.00 | 0.00 | 0.00 | 87 | 1005.8 |
| 20260507160541 | 6 | 324 | 9.7 | 12.9 | 0.00 | 0.00 | 0.00 | 87 | 1005.7 |
| 20260507160044 | 6 | 324 | 8.0 | 14.5 | 0.00 | 0.00 | 0.00 | 86 | 1005.6 |
| 20260507155540 | 6 | 324 | 11.3 | 14.5 | 0.00 | 0.00 | 0.00 | 86 | 1005.7 |
| 20260507155041 | 6 | 324 | 9.7 | 12.9 | 0.00 | 0.00 | 0.00 | 86 | 1005.9 |
| 20260507154552 | 6 | 324 | 6.4 | 11.3 | 0.00 | 0.00 | 0.00 | 87 | 1005.9 |
| 20260507154040 | 6 | 324 | 8.0 | 11.3 | 0.00 | 0.00 | 0.00 | 86 | 1005.8 |
| 20260507153546 | 6 | 324 | 6.4 | 11.3 | 0.00 | 0.00 | 0.00 | 85 | 1005.7 |
| 20260507153110 | 6 | 324 | 4.8 | 8.0 | 0.00 | 0.00 | 0.00 | 87 | 1005.8 |
| 20260507152543 | 6 | 324 | 3.2 | 8.0 | 0.00 | 0.00 | 0.00 | 86 | 1005.9 |
| 20260507152045 | 6 | 324 | 4.8 | 11.3 | 0.00 | 0.00 | 0.00 | 86 | 1005.9 |
| 20260507151556 | 6 | 324 | 6.4 | 11.3 | 0.00 | 0.00 | 0.00 | 86 | 1005.8 |
| 20260507151044 | 6 | 324 | 6.4 | 11.3 | 0.00 | 0.00 | 0.00 | 86 | 1005.9 |
| 20260507150545 | 6 | 324 | 1.6 | 3.2 | 0.00 | 0.00 | 0.00 | 86 | 1005.9 |
| 20260507150054 | 6 | 324 | 1.6 | 6.4 | 0.00 | 0.00 | 0.00 | 87 | 1005.8 |
| 20260507145544 | 6 | 324 | 3.2 | 6.4 | 0.00 | 0.00 | 0.00 | 87 | 1005.9 |
| 20260507145046 | 6 | 324 | 3.2 | 6.4 | 0.00 | 0.00 | 0.00 | 86 | 1006.0 |
| 20260507144552 | 6 | 324 | 3.2 | 6.4 | 0.00 | 0.00 | 0.00 | 86 | 1005.8 |
| 20260507144045 | 6 | 324 | 3.2 | 6.4 | 0.00 | 0.00 | 0.00 | 86 | 1006.0 |
| 20260507143543 | 6 | 324 | 3.2 | 6.4 | 0.00 | 0.00 | 0.00 | 87 | 1005.9 |
| 20260507143054 | 6 | 324 | 1.6 | 4.8 | 0.00 | 0.00 | 0.00 | 87 | 1006.0 |
| 20260507142544 | 6 | 324 | 1.6 | 1.6 | 0.00 | 0.00 | 0.00 | 87 | 1006.0 |
| 20260507142044 | 6 | 0 | 0.0 | 3.2 | 0.00 | 0.00 | 0.00 | 87 | 1006.2 |
| 20260507141555 | 6 | 324 | 1.6 | 4.8 | 0.00 | 0.00 | 0.00 | 85 | 1006.0 |
| 20260507141043 | 6 | 324 | 1.6 | 6.4 | 0.00 | 0.00 | 0.00 | 86 | 1006.0 |
| 20260507140545 | 6 | 324 | 3.2 | 6.4 | 0.00 | 0.00 | 0.00 | 85 | 1006.0 |
| 20260507140058 | 6 | 324 | 3.2 | 6.4 | 0.00 | 0.00 | 0.00 | 86 | 1006.0 |
| 20260507135549 | 6 | 324 | 4.8 | 6.4 | 0.00 | 0.00 | 0.00 | 87 | 1006.0 |
| 20260507135047 | 6 | 324 | 3.2 | 6.4 | 0.00 | 0.00 | 0.00 | 88 | 1006.1 |
| 20260507134553 | 6 | 324 | 1.6 | 3.2 | 0.00 | 0.00 | 0.00 | 88 | 1006.1 |
| 20260507134044 | 6 | 324 | 1.6 | 3.2 | 0.00 | 0.00 | 0.00 | 87 | 1006.1 |
| 20260507133544 | 6 | 324 | 1.6 | 4.8 | 0.00 | 0.00 | 0.00 | 86 | 1006.1 |
| 20260507133052 | 6 | 324 | 3.2 | 6.4 | 0.00 | 0.00 | 0.00 | 86 | 1006.1 |
| 20260507132543 | 6 | 324 | 3.2 | 8.0 | 0.00 | 0.00 | 0.00 | 87 | 1006.1 |
| 20260507132043 | 6 | 324 | 3.2 | 8.0 | 0.00 | 0.00 | 0.00 | 87 | 1006.2 |
| 20260507131552 | 6 | 324 | 6.4 | 12.9 | 0.00 | 0.00 | 0.00 | 87 | 1006.2 |
| 20260507131044 | 6 | 324 | 6.4 | 12.9 | 0.00 | 0.00 | 0.00 | 87 | 1006.3 |
| 20260507130544 | 6 | 324 | 6.4 | 11.3 | 0.00 | 0.00 | 0.00 | 87 | 1006.2 |
| 20260507130103 | 6 | 324 | 6.4 | 9.7 | 0.00 | 0.00 | 0.00 | 87 | 1006.1 |
| 20260507125543 | 5 | 324 | 4.8 | 9.7 | 0.00 | 0.00 | 0.00 | 88 | 1006.2 |
| 20260507125044 | 5 | 324 | 4.8 | 9.7 | 0.00 | 0.00 | 0.00 | 87 | 1006.2 |
| 20260507124615 | 5 | 324 | 6.4 | 11.3 | 0.00 | 0.00 | 0.00 | 87 | 1006.4 |
| 20260507124046 | 5 | 324 | 8.0 | 11.3 | 0.00 | 0.00 | 0.00 | 86 | 1006.3 |
| 20260507123546 | 5 | 324 | 8.0 | 11.3 | 0.00 | 0.00 | 0.00 | 88 | 1006.2 |
| 20260507123104 | 5 | 324 | 3.2 | 9.7 | 0.00 | 0.00 | 0.00 | 88 | 1006.4 |
| 20260507122545 | 5 | 0 | 0.0 | 1.6 | 0.00 | 0.00 | 0.00 | 87 | 1006.2 |
| 20260507122043 | 5 | 324 | 0.0 | 0.0 | 0.00 | 0.00 | 0.00 | 87 | 1006.2 |
| 20260507121600 | 5 | 0 | 0.0 | 3.2 | 0.00 | 0.00 | 0.00 | 87 | 1006.1 |
| 20260507121047 | 5 | 0 | 0.0 | 4.8 | 0.00 | 0.00 | 0.00 | 88 | 1006.3 |
| 20260507120545 | 5 | 324 | 3.2 | 6.4 | 0.00 | 0.00 | 0.00 | 88 | 1006.2 |
| 20260507120052 | 5 | 324 | 4.8 | 8.0 | 0.00 | 0.00 | 0.00 | 89 | 1006.2 |
| 20260507115543 | 5 | 324 | 4.8 | 8.0 | 0.00 | 0.00 | 0.00 | 88 | 1006.2 |
| 20260507115045 | 5 | 324 | 6.4 | 8.0 | 0.00 | 0.00 | 0.00 | 89 | 1006.4 |
| 20260507114553 | 5 | 324 | 6.4 | 8.0 | 0.00 | 0.00 | 0.00 | 89 | 1006.4 |
| 20260507114045 | 5 | 324 | 4.8 | 6.4 | 0.00 | 0.00 | 0.00 | 88 | 1006.3 |
| 20260507113547 | 5 | 324 | 3.2 | 9.7 | 0.00 | 0.00 | 0.00 | 88 | 1006.2 |
| 20260507113049 | 5 | 324 | 4.8 | 12.9 | 0.00 | 0.00 | 0.00 | 87 | 1006.4 |
| 20260507112549 | 5 | 324 | 6.4 | 12.9 | 0.00 | 0.00 | 0.00 | 87 | 1006.4 |
| 20260507112044 | 5 | 324 | 8.0 | 12.9 | 0.00 | 0.00 | 0.00 | 88 | 1006.5 |
| 20260507111552 | 5 | 324 | 6.4 | 9.7 | 0.00 | 0.00 | 0.00 | 87 | 1006.4 |
| 20260507111043 | 5 | 324 | 6.4 | 6.4 | 0.00 | 0.00 | 0.00 | 88 | 1006.7 |
| 20260507110543 | 5 | 324 | 4.8 | 6.4 | 0.00 | 0.00 | 0.00 | 89 | 1006.7 |
| 20260507110056 | 5 | 324 | 3.2 | 8.0 | 0.00 | 0.00 | 0.00 | 89 | 1006.7 |
| 20260507105544 | 5 | 324 | 4.8 | 8.0 | 0.00 | 0.00 | 0.00 | 89 | 1006.4 |
| 20260507105046 | 5 | 324 | 6.4 | 9.7 | 0.00 | 0.00 | 0.00 | 88 | 1006.5 |
| 20260507104555 | 5 | 324 | 6.4 | 9.7 | 0.00 | 0.00 | 0.00 | 88 | 1006.4 |
| 20260507104044 | 5 | 324 | 4.8 | 9.7 | 0.00 | 0.00 | 0.00 | 90 | 1006.4 |
| 20260507103544 | 5 | 324 | 6.4 | 9.7 | 0.00 | 0.00 | 0.00 | 88 | 1006.6 |
| 20260507103051 | 5 | 324 | 4.8 | 9.7 | 0.00 | 0.00 | 0.00 | 89 | 1006.4 |
| 20260507102545 | 5 | 324 | 4.8 | 9.7 | 0.00 | 0.00 | 0.00 | 89 | 1006.4 |
| 20260507102046 | 5 | 324 | 4.8 | 9.7 | 0.00 | 0.00 | 0.00 | 88 | 1006.2 |
| 20260507101559 | 4 | 324 | 4.8 | 9.7 | 0.00 | 0.00 | 0.00 | 87 | 1006.1 |
| 20260507101045 | 4 | 324 | 3.2 | 6.4 | 0.00 | 0.00 | 0.00 | 89 | 1006.0 |
| 20260507100545 | 4 | 0 | 0.0 | 3.2 | 0.00 | 0.00 | 0.00 | 88 | 1006.2 |
| 20260507100058 | 4 | 324 | 1.6 | 3.2 | 0.00 | 0.00 | 0.00 | 88 | 1006.4 |
| 20260507095546 | 4 | 324 | 0.0 | 0.0 | 0.00 | 0.00 | 0.00 | 88 | 1006.3 |
| 20260507095047 | 4 | 0 | 0.0 | 6.4 | 0.00 | 0.00 | 0.00 | 88 | 1006.2 |
| 20260507094551 | 5 | 0 | 0.0 | 6.4 | 0.00 | 0.00 | 0.00 | 88 | 1006.3 |
| 20260507094045 | 5 | 324 | 3.2 | 8.0 | 0.00 | 0.00 | 0.00 | 87 | 1006.1 |
| 20260507093545 | 5 | 324 | 4.8 | 8.0 | 0.00 | 0.00 | 0.00 | 87 | 1006.3 |
| 20260507093053 | 4 | 324 | 4.8 | 8.0 | 0.00 | 0.00 | 0.00 | 86 | 1006.2 |
| 20260507092542 | 4 | 324 | 4.8 | 8.0 | 0.00 | 0.00 | 0.00 | 87 | 1006.0 |
| 20260507092041 | 4 | 324 | 6.4 | 11.3 | 0.00 | 0.00 | 0.00 | 89 | 1006.1 |
| 20260507091550 | 4 | 324 | 6.4 | 11.3 | 0.00 | 0.00 | 0.00 | 89 | 1006.3 |
| 20260507091045 | 4 | 324 | 6.4 | 9.7 | 0.00 | 0.00 | 0.00 | 89 | 1006.3 |
| 20260507090543 | 4 | 324 | 4.8 | 6.4 | 0.00 | 0.00 | 0.00 | 90 | 1006.2 |
| 20260507090054 | 4 | 324 | 1.6 | 4.8 | 0.00 | 0.00 | 0.00 | 91 | 1005.9 |
| 20260507085542 | 4 | 324 | 1.6 | 4.8 | 0.00 | 0.00 | 0.00 | 91 | 1006.0 |
| 20260507085042 | 4 | 324 | 1.6 | 4.8 | 0.00 | 0.00 | 0.00 | 90 | 1005.8 |
| 20260507084557 | 4 | 324 | 0.0 | 3.2 | 0.00 | 0.00 | 0.00 | 91 | 1005.7 |
| 20260507084041 | 4 | 324 | 1.6 | 4.8 | 0.00 | 0.00 | 0.00 | 90 | 1005.9 |
| 20260507083541 | 4 | 324 | 3.2 | 4.8 | 0.00 | 0.00 | 0.00 | 90 | 1006.0 |
| 20260507083108 | 4 | 324 | 1.6 | 6.4 | 0.00 | 0.00 | 0.00 | 91 | 1006.1 |
| 20260507082541 | 4 | 324 | 3.2 | 6.4 | 0.00 | 0.00 | 0.00 | 92 | 1006.2 |
| 20260507082045 | 4 | 324 | 3.2 | 6.4 | 0.00 | 0.00 | 0.00 | 92 | 1006.1 |
| 20260507081604 | 4 | 324 | 4.8 | 6.4 | 0.00 | 0.00 | 0.00 | 91 | 1006.0 |
| 20260507081041 | 4 | 324 | 3.2 | 6.4 | 0.00 | 0.00 | 0.00 | 92 | 1006.1 |
| 20260507080544 | 4 | 324 | 3.2 | 6.4 | 0.00 | 0.00 | 0.00 | 92 | 1006.0 |
| 20260507080057 | 4 | 324 | 3.2 | 8.0 | 0.00 | 0.00 | 0.00 | 91 | 1005.9 |
| 20260507075547 | 4 | 324 | 3.2 | 9.7 | 0.00 | 0.00 | 0.00 | 91 | 1005.5 |
| 20260507075045 | 4 | 324 | 6.4 | 9.7 | 0.00 | 0.00 | 0.00 | 90 | 1005.8 |
| 20260507074548 | 4 | 324 | 6.4 | 9.7 | 0.00 | 0.00 | 0.00 | 90 | 1005.6 |
| 20260507074045 | 4 | 324 | 6.4 | 9.7 | 0.00 | 0.00 | 0.00 | 90 | 1005.8 |
| 20260507073544 | 3 | 324 | 3.2 | 6.4 | 0.00 | 0.00 | 0.00 | 92 | 1005.9 |
| 20260507073104 | 3 | 0 | 0.0 | 0.0 | 0.00 | 0.00 | 0.00 | 94 | 1005.6 |
| 20260507072543 | 4 | 0 | 0.0 | 3.2 | 0.00 | 0.00 | 0.00 | 93 | 1005.4 |
| 20260507072046 | 4 | 0 | 0.0 | 6.4 | 0.00 | 0.00 | 0.00 | 93 | 1005.5 |
| 20260507071557 | 4 | 324 | 1.6 | 6.4 | 0.00 | 0.00 | 0.00 | 92 | 1005.9 |
| 20260507071042 | 4 | 324 | 1.6 | 4.8 | 0.00 | 0.00 | 0.00 | 92 | 1005.9 |
| 20260507070543 | 4 | 324 | 0.0 | 3.2 | 0.00 | 0.00 | 0.00 | 93 | 1005.8 |
| 20260507065545 | 3 | 0 | 0.0 | 3.2 | 0.00 | 0.00 | 0.00 | 94 | 1005.6 |
| 20260507065041 | 3 | 0 | 0.0 | 3.2 | 0.00 | 0.00 | 0.00 | 93 | 1005.4 |
| 20260507064552 | 3 | 324 | 0.0 | 3.2 | 0.00 | 0.00 | 0.00 | 94 | 1005.3 |
| 20260507064043 | 3 | 0 | 0.0 | 3.2 | 0.00 | 0.00 | 0.00 | 94 | 1005.7 |
| 20260507063545 | 3 | 0 | 0.0 | 1.6 | 0.00 | 0.00 | 0.00 | 94 | 1005.7 |
| 20260507063052 | 4 | 0 | 0.0 | 1.6 | 0.00 | 0.00 | 0.00 | 94 | 1005.6 |
| 20260507062545 | 4 | 0 | 0.0 | 1.6 | 0.00 | 0.00 | 0.00 | 94 | 1005.3 |
| 20260507062045 | 4 | 0 | 0.0 | 1.6 | 0.00 | 0.00 | 0.00 | 94 | 1005.7 |
| 20260507061559 | 4 | 0 | 0.0 | 1.6 | 0.00 | 0.00 | 0.00 | 94 | 1005.7 |
| 20260507061041 | 4 | 0 | 0.0 | 1.6 | 0.00 | 0.00 | 0.00 | 95 | 1005.8 |
| 20260507060541 | 4 | 0 | 0.0 | 1.6 | 0.00 | 0.00 | 0.00 | 95 | 1005.8 |
| 20260507060057 | 4 | 0 | 0.0 | 3.2 | 0.00 | 0.00 | 0.00 | 95 | 1005.8 |
| 20260507055542 | 4 | 324 | 0.0 | 3.2 | 0.00 | 0.00 | 0.00 | 95 | 1005.8 |
| 20260507055042 | 4 | 324 | 0.0 | 3.2 | 0.00 | 0.00 | 0.00 | 95 | 1005.8 |
| 20260507054551 | 4 | 0 | 0.0 | 1.6 | 0.00 | 0.00 | 0.00 | 95 | 1005.8 |
| 20260507054043 | 4 | 324 | 0.0 | 3.2 | 0.00 | 0.00 | 0.00 | 95 | 1005.8 |
| 20260507053544 | 4 | 324 | 0.0 | 3.2 | 0.00 | 0.00 | 0.00 | 95 | 1005.8 |
| 20260507053051 | 5 | 324 | 1.6 | 3.2 | 0.00 | 0.00 | 0.00 | 95 | 1005.9 |
| 20260507052543 | 5 | 324 | 0.0 | 3.2 | 0.00 | 0.00 | 0.00 | 95 | 1005.9 |
| 20260507052043 | 5 | 324 | 0.0 | 8.0 | 0.00 | 0.00 | 0.00 | 94 | 1006.0 |
| 20260507051550 | 5 | 324 | 0.0 | 8.0 | 0.00 | 0.00 | 0.00 | 94 | 1005.9 |
| 20260507051042 | 5 | 324 | 1.6 | 8.0 | 0.00 | 0.00 | 0.00 | 94 | 1005.9 |
| 20260507050546 | 5 | 324 | 1.6 | 4.8 | 0.00 | 0.00 | 0.00 | 94 | 1005.7 |
| 20260507050052 | 5 | 0 | 1.6 | 3.2 | 0.00 | 0.00 | 0.00 | 94 | 1005.8 |
| 20260507045543 | 5 | 324 | 1.6 | 3.2 | 0.00 | 0.00 | 0.00 | 94 | 1005.8 |
| 20260507045043 | 5 | 0 | 0.0 | 3.2 | 0.00 | 0.00 | 0.00 | 94 | 1005.8 |
| 20260507044550 | 5 | 324 | 0.0 | 3.2 | 0.00 | 0.00 | 0.00 | 95 | 1005.9 |
| 20260507044044 | 5 | 324 | 1.6 | 3.2 | 0.00 | 0.00 | 0.00 | 95 | 1005.5 |
| 20260507043543 | 5 | 324 | 0.0 | 1.6 | 0.00 | 0.00 | 0.00 | 96 | 1005.8 |
| 20260507043049 | 5 | 0 | 0.0 | 3.2 | 0.00 | 0.00 | 0.00 | 95 | 1005.8 |
| 20260507042542 | 5 | 0 | 0.0 | 3.2 | 0.00 | 0.00 | 0.00 | 95 | 1005.7 |
| 20260507042041 | 5 | 0 | 0.0 | 3.2 | 0.00 | 0.00 | 0.00 | 95 | 1006.0 |
| 20260507041551 | 5 | 324 | 0.0 | 1.6 | 0.00 | 0.00 | 0.00 | 95 | 1006.1 |
| 20260507041043 | 6 | 0 | 0.0 | 3.2 | 0.00 | 0.00 | 0.00 | 95 | 1006.2 |
| 20260507040541 | 6 | 324 | 1.6 | 3.2 | 0.00 | 0.00 | 0.00 | 95 | 1006.1 |
| 20260507040049 | 6 | 324 | 1.6 | 3.2 | 0.00 | 0.00 | 0.00 | 95 | 1006.1 |
| 20260507035545 | 6 | 324 | 0.0 | 3.2 | 0.00 | 0.00 | 0.00 | 95 | 1006.2 |
| 20260507035045 | 6 | 324 | 1.6 | 3.2 | 0.00 | 0.00 | 0.00 | 95 | 1006.4 |
| 20260507034552 | 6 | 324 | 0.0 | 1.6 | 0.00 | 0.00 | 0.00 | 96 | 1006.3 |
| 20260507034044 | 6 | 324 | 0.0 | 1.6 | 0.00 | 0.00 | 0.00 | 96 | 1006.5 |
| 20260507033542 | 6 | 324 | 0.0 | 1.6 | 0.00 | 0.00 | 0.00 | 96 | 1006.4 |
| 20260507033050 | 6 | 0 | 0.0 | 0.0 | 0.00 | 0.00 | 0.00 | 96 | 1006.4 |
| 20260507032546 | 6 | 0 | 0.0 | 0.0 | 0.00 | 0.00 | 0.00 | 96 | 1006.4 |
| 20260507032041 | 6 | 0 | 0.0 | 1.6 | 0.00 | 0.00 | 0.00 | 96 | 1006.4 |
| 20260507031551 | 6 | 0 | 0.0 | 1.6 | 0.00 | 0.00 | 0.00 | 96 | 1006.5 |
| 20260507031044 | 6 | 0 | 0.0 | 1.6 | 0.00 | 0.00 | 0.00 | 96 | 1006.4 |
| 20260507030542 | 6 | 0 | 0.0 | 1.6 | 0.00 | 0.00 | 0.00 | 96 | 1006.4 |
| 20260507030059 | 6 | 324 | 1.6 | 3.2 | 0.00 | 0.00 | 0.00 | 96 | 1006.4 |
| 20260507025541 | 6 | 324 | 1.6 | 3.2 | 0.00 | 0.00 | 0.00 | 96 | 1006.5 |
| 20260507025050 | 6 | 324 | 1.6 | 3.2 | 0.00 | 0.00 | 0.00 | 96 | 1006.3 |
| 20260507024613 | 6 | 324 | 1.6 | 3.2 | 0.00 | 0.00 | 0.00 | 96 | 1006.2 |
| 20260507024045 | 6 | 324 | 1.6 | 3.2 | 0.00 | 0.00 | 0.00 | 96 | 1006.2 |
| 20260507023546 | 6 | 324 | 0.0 | 3.2 | 0.00 | 0.00 | 0.00 | 96 | 1006.1 |
| 20260507023051 | 6 | 324 | 1.6 | 3.2 | 0.00 | 0.00 | 0.00 | 96 | 1006.1 |
| 20260507022549 | 6 | 324 | 0.0 | 4.8 | 0.00 | 0.00 | 0.00 | 96 | 1006.3 |
| 20260507022041 | 6 | 324 | 1.6 | 4.8 | 0.00 | 0.00 | 0.00 | 96 | 1006.0 |
| 20260507021547 | 6 | 324 | 0.0 | 1.6 | 0.00 | 0.00 | 0.00 | 96 | 1006.0 |
| 20260507021046 | 6 | 0 | 0.0 | 0.0 | 0.00 | 0.00 | 0.00 | 96 | 1005.9 |
| 20260507020546 | 6 | 0 | 0.0 | 1.6 | 0.00 | 0.00 | 0.00 | 96 | 1005.8 |
| 20260507020106 | 6 | 0 | 0.0 | 1.6 | 0.00 | 0.00 | 0.00 | 96 | 1005.6 |
| 20260507015541 | 6 | 324 | 0.0 | 3.2 | 0.00 | 0.00 | 0.00 | 96 | 1005.6 |
| 20260507015041 | 6 | 324 | 0.0 | 6.4 | 0.00 | 0.00 | 0.00 | 96 | 1005.8 |
| 20260507014602 | 6 | 324 | 1.6 | 6.4 | 0.00 | 0.00 | 0.00 | 96 | 1005.9 |
| 20260507014041 | 6 | 324 | 3.2 | 6.4 | 0.00 | 0.00 | 0.00 | 96 | 1006.1 |
| 20260507013544 | 6 | 324 | 1.6 | 4.8 | 0.00 | 0.00 | 0.00 | 96 | 1005.8 |
| 20260507013051 | 6 | 324 | 1.6 | 4.8 | 0.00 | 0.00 | 0.00 | 96 | 1005.5 |
| 20260507012545 | 6 | 324 | 0.0 | 3.2 | 0.00 | 0.00 | 0.00 | 96 | 1005.3 |
| 20260507012045 | 6 | 324 | 1.6 | 3.2 | 0.00 | 0.00 | 0.00 | 96 | 1005.4 |
| 20260507011553 | 6 | 324 | 0.0 | 1.6 | 0.00 | 0.00 | 0.00 | 96 | 1005.4 |
| 20260507011042 | 6 | 324 | 0.0 | 3.2 | 0.00 | 0.00 | 0.00 | 96 | 1005.5 |
| 20260507010541 | 6 | 324 | 1.6 | 3.2 | 0.00 | 0.00 | 0.00 | 96 | 1005.5 |
| 20260507010049 | 6 | 324 | 1.6 | 3.2 | 0.00 | 0.00 | 0.00 | 96 | 1005.6 |
| 20260507005544 | 6 | 324 | 0.0 | 1.6 | 0.00 | 0.00 | 0.00 | 96 | 1005.6 |
| 20260507005043 | 6 | 324 | 0.0 | 1.6 | 0.00 | 0.00 | 0.00 | 96 | 1005.6 |